Regional Weather Roundup
Issued by NWS

Home | Current Version | Previous Version | Text Only | Print | Product List | Glossary On
Versions: 1 2 3 4 5 6 7 8 9 10 11 12 13 14 15 16 17 18 19 20 21 22 23 24 25 26 27 28 29 30 31 32 33 34 35 36 37 38 39 40 41 42 43 44 45 46 47 48 49 50
658
ASUS44 KMEG 240510
RWRTN
TENNESSEE HOURLY STATE WEATHER ROUNDUP
NATIONAL WEATHER SERVICE MEMPHIS TN
1100 PM CST THU NOV 23 2017

TNZ002-004-019-021-049-052-054-088>092-240600-
WEST TENNESSEE

CITY           SKY/WX    TMP DP  RH WIND       PRES   REMARKS
MEMPHIS INTL   CLEAR     38  30  73 CALM      30.05S
NWS MEMPHIS      N/A     36 N/A N/A MISG        N/A
JACKSON        CLEAR     31  27  85 CALM      30.06R
DYERSBURG      CLEAR     38  28  67 S3        30.05S
SOMERVILLE     CLEAR     32  27  80 CALM      30.03F
COVINGTON      CLEAR     32  28  86 SE3       30.05S
UNION CITY     CLEAR     36  27  69 CALM      30.04S
BOLIVAR        CLEAR     32  27  80 CALM      30.05S
PARIS          PTCLDY    34  27  75 CALM      30.04R
HUNTINGDON     CLEAR     32  28  86 CALM      30.04S
LEXINGTON      CLEAR     32  27  80 CALM      30.05S
SELMER         CLEAR     32  25  74 CALM      30.04S
SAVANNAH       CLEAR     30  28  93 CALM      30.05S
$$

TNZ008-025-027-028-033-062-065-066-240600-
NORTH MIDDLE TENNESSEE

CITY           SKY/WX    TMP DP  RH WIND       PRES   REMARKS
NASHVILLE      CLEAR     37  27  67 CALM      30.06R
PORTLAND       CLEAR     30  27  86 S3        30.04S
CLARKSVILLE    CLOUDY    34  24  67 CALM      30.04F
SMYRNA         CLEAR     31  28  89 CALM      30.07S
COOKEVILLE     CLEAR     27  25  93 CALM      30.04S
GALLATIN       CLEAR     32  27  80 CALM      30.07S
CROSSVILLE     CLEAR     32  26  78 CALM      30.03S
$$

TNZ061-075-076-078-094-096-097-240600-
SOUTH MIDDLE TENNESSEE

CITY           SKY/WX    TMP DP  RH WIND       PRES   REMARKS
FAYETTEVILLE   PTCLDY    39  21  48 NE3       30.03S
TULLAHOMA      CLEAR     30  25  80 CALM      30.03F
WINCHESTER     CLEAR     28  28 100 CALM      30.05S
MCMINNVILLE    CLEAR     32  27  80 CALM      30.04S
COLUMBIA       CLEAR     32  25  74 CALM      30.04S
SHELBYVILLE    CLEAR     30  27  86 CALM      30.04F
$$

TNZ017-018-042-046-047-240600-
NORTHEAST TENNESSEE

CITY           SKY/WX    TMP DP  RH WIND       PRES   REMARKS
TRI CITIES     CLEAR     31  30  96 CALM      30.04R
ELIZABETHTON   CLEAR     34  32  93 CALM      30.04S
$$

TNZ012-013-036-069-073-074-240600-
CENTRAL EAST TENNESSEE

CITY           SKY/WX    TMP DP  RH WIND       PRES   REMARKS
KNOXVILLE      CLEAR     38  34  85 CALM      30.03R
OAK RIDGE      CLEAR     34  32  92 CALM      30.05S
DOWNTOWN KNOXV FOG       36  36 100 CALM      30.05S VSB 1/4
GATLINBURG     PTCLDY    34  32  93 CALM      30.04S
MORRISTOWN     CLEAR     37  32  81 CALM      30.03R
JACKSBORO      CLEAR     30  30 100 CALM      30.07S
$$

TNZ083-085-099-240600-
SOUTHEAST TENNESSEE

CITY           SKY/WX    TMP DP  RH WIND       PRES   REMARKS
CHATTANOOGA    CLEAR     36  33  89 CALM      30.05R
DAYTON         PTCLDY    32  32 100 CALM      30.04S
$$

SKY/WX REPORTED AS FAIR MEANS FEW OR NO CLOUDS BELOW
12 THOUSAND FEET.





USA.gov is the U.S. government's official web portal to all federal, state and local government web resources and services.